Location: Unspecified
(0.0000°N, 0.0000°E)
Time: 14:10:20
(UTC+00:00)

Courier 1B - All Passes

Search period start: 21 June 2018 00:00
Search period end: 01 July 2018 00:00
Orbit: 962 x 1209 km, 28.3° (Epoch: 20 June)

Date Brightness Start Highest point End Pass type
(mag) Time Alt. Az. Time Alt. Az. Time Alt. Az.
21 Jun - 04:35:11 10° NNW 04:40:45 29° NNE 04:46:17 10° E visible
21 Jun - 06:28:22 10° WNW 06:34:50 75° SSW 06:41:24 10° SE daylight
21 Jun - 08:24:22 10° WSW 08:29:08 21° SSW 08:34:03 10° SSE daylight
21 Jun - 14:17:55 10° SSE 14:18:07 10° SSE 14:18:19 10° SSE daylight
21 Jun - 16:06:56 10° SSW 16:13:33 30° SSE 16:20:16 10° E daylight
21 Jun - 18:00:15 10° WSW 18:08:09 88° NNW 18:15:59 10° ENE daylight
21 Jun - 19:56:11 10° W 20:02:44 29° NNW 20:09:06 10° NNE visible
22 Jun - 03:42:00 10° NNW 03:46:53 21° NNE 03:51:40 10° ENE visible
22 Jun - 05:34:36 10° NW 05:41:07 78° NNE 05:47:37 10° ESE visible
22 Jun - 07:29:46 10° W 07:35:13 28° SSW 07:40:48 10° SSE daylight
22 Jun - 15:13:40 10° SSW 15:19:25 23° SSE 15:25:17 10° ESE daylight
22 Jun - 17:06:22 10° SW 17:14:08 70° SSE 17:21:58 10° ENE daylight
22 Jun - 19:01:27 10° W 19:08:39 39° NNW 19:15:44 10° NE visible
22 Jun - 21:00:39 10° NW 21:03:48 13° NNW 21:06:54 10° N visible
23 Jun - 02:49:00 10° NNW 02:52:54 16° NNE 02:56:42 10° ENE visible
23 Jun - 04:40:59 10° NW 04:47:23 55° NNE 04:53:41 10° ESE visible
23 Jun - 06:35:25 10° W 06:41:24 39° SSW 06:47:28 10° SE daylight
23 Jun - 08:34:00 10° SW 08:36:08 12° SSW 08:38:18 10° S daylight
23 Jun - 14:20:41 10° SSW 14:25:14 17° SSE 14:29:53 10° ESE daylight
23 Jun - 16:12:40 10° SW 16:20:07 51° SSE 16:27:43 10° ENE daylight
23 Jun - 18:07:01 10° WSW 18:14:36 52° NNW 18:22:10 10° NE daylight
23 Jun - 20:04:41 10° WNW 20:09:32 17° NNW 20:14:18 10° NNE visible
24 Jun - 01:56:25 10° N 01:58:48 12° NNE 02:01:08 10° NE visible
24 Jun - 03:47:27 10° NW 03:53:37 39° NNE 03:59:35 10° E visible
24 Jun - 05:41:17 10° WNW 05:47:39 56° SSW 05:53:59 10° SE daylight
24 Jun - 07:38:19 10° WSW 07:42:04 16° SSW 07:45:53 10° SSE daylight
24 Jun - 13:28:18 10° S 13:31:00 12° SSE 13:33:44 10° SE daylight
24 Jun - 15:19:10 10° SW 15:26:05 38° SSE 15:33:13 10° E daylight
24 Jun - 17:12:50 10° WSW 17:20:34 71° NNW 17:28:25 10° NE daylight
24 Jun - 19:09:22 10° WNW 19:15:19 23° NNW 19:21:13 10° NNE visible
25 Jun - 02:54:02 10° NNW 02:59:46 28° NNE 03:05:17 10° E visible
25 Jun - 04:47:19 10° WNW 04:53:55 80° SSW 05:00:24 10° SE visible
25 Jun - 06:43:19 10° WSW 06:48:07 22° SSW 06:52:57 10° SSE daylight
25 Jun - 14:25:52 10° SSW 14:32:02 28° SSE 14:38:26 10° E daylight
25 Jun - 16:18:53 10° WSW 16:26:34 87° SSE 16:34:28 10° ENE daylight
25 Jun - 18:14:28 10° W 18:21:10 31° NNW 18:27:54 10° NNE visible
25 Jun - 20:15:19 10° NNW 20:16:39 10° NNW 20:17:59 10° N visible
26 Jun - 02:00:45 10° NNW 02:05:49 21° NNE 02:10:42 10° ENE visible
26 Jun - 03:53:29 10° NW 04:00:12 74° NNE 04:06:41 10° ESE visible
26 Jun - 05:48:39 10° W 05:54:16 30° SSW 05:59:50 10° SSE daylight
26 Jun - 13:32:48 10° SSW 13:37:58 20° SSE 13:43:18 10° ESE daylight
26 Jun - 15:25:08 10° SW 15:32:35 65° SSE 15:40:20 10° ENE daylight
26 Jun - 17:19:54 10° W 17:27:04 41° NNW 17:34:22 10° NE daylight
26 Jun - 19:18:27 10° NW 19:22:17 14° NNW 19:26:05 10° N visible
27 Jun - 01:07:37 10° NNW 01:11:45 16° NNE 01:15:46 10° ENE night (unlit)
27 Jun - 02:59:45 10° NW 03:06:26 52° NNE 03:12:47 10° ESE visible
27 Jun - 04:54:15 10° W 05:00:28 42° SSW 05:06:33 10° SE visible
27 Jun - 06:52:45 10° SW 06:55:04 12° SSW 06:57:22 10° S daylight
27 Jun - 12:40:06 10° S 12:43:50 15° SSE 12:47:40 10° SE daylight
27 Jun - 14:31:35 10° SW 14:38:36 47° SSE 14:45:59 10° ENE daylight
27 Jun - 16:25:36 10° WSW 16:33:01 55° NNW 16:40:41 10° NE daylight
27 Jun - 18:22:50 10° WNW 18:27:58 19° NNW 18:33:08 10° NNE visible
28 Jun - 00:14:47 10° N 00:17:34 12° NNE 00:20:17 10° NE night (unlit)
28 Jun - 02:06:09 10° NW 02:12:35 38° NNE 02:18:41 10° E visible
28 Jun - 04:00:03 10° WNW 04:06:43 60° SSW 04:13:08 10° SE visible
28 Jun - 05:57:03 10° WSW 06:01:03 17° SSW 06:05:01 10° SSE daylight
28 Jun - 11:48:49 10° SSE 11:49:39 10° SSE 11:50:29 10° SSE daylight
28 Jun - 13:38:14 10° SW 13:44:39 34° SSE 13:51:23 10° E daylight
28 Jun - 15:31:34 10° WSW 15:39:01 75° NNW 15:46:50 10° NE daylight
28 Jun - 17:27:43 10° WNW 17:33:45 25° NNW 17:39:53 10° NNE daylight
29 Jun - 01:12:38 10° NNW 01:18:39 28° NNE 01:24:22 10° E night (unlit)
29 Jun - 03:06:00 10° WNW 03:12:58 85° SSW 03:19:34 10° ESE visible
29 Jun - 05:02:01 10° WSW 05:07:08 23° SSW 05:12:09 10° SSE visible
29 Jun - 12:45:05 10° SSW 12:50:40 25° SSE 12:56:30 10° E daylight
29 Jun - 14:37:46 10° WSW 14:45:04 82° SSE 14:52:48 10° ENE daylight
29 Jun - 16:33:00 10° W 16:39:37 32° NNW 16:46:26 10° NNE daylight
29 Jun - 18:32:51 10° NW 18:35:05 11° NNW 18:37:20 10° N visible
30 Jun - 00:19:14 10° NNW 00:24:37 21° NNE 00:29:45 10° ENE night (unlit)
30 Jun - 02:12:05 10° NW 02:19:10 70° NNE 02:25:51 10° ESE visible
30 Jun - 04:07:18 10° W 04:13:17 33° SSW 04:19:04 10° SSE visible
30 Jun - 11:52:12 10° SSW 11:56:39 18° SSE 12:01:15 10° ESE daylight
30 Jun - 13:44:09 10° SW 13:51:10 60° SSE 13:58:36 10° ENE daylight
30 Jun - 15:38:36 10° W 15:45:32 43° NNW 15:52:49 10° NE daylight
30 Jun - 17:36:40 10° NW 17:40:42 15° NNW 17:44:48 10° N daylight
30 Jun - 23:26:00 10° NNW 23:30:27 16° NNE 23:34:46 10° ENE night (unlit)
